Location: Newark
(20.5800°N, 87.1197°W)
Time: 04:19:26
(UTC+00:00)

N. Korean satellite - Pass Details

Date: 04 August 2020
Orbit: 455 x 503 km, 97.2° (Epoch: 22 September)

Event Time Altitude Azimuth Distance (km) Brightness Sun altitude
Rises 10:51:30 0° 21° (NNE) 2,504 10.9 -8.1°
Reaches altitude 10° 10:53:37 10° 29° (NNE) 1,634 10.1 -7.6°
Maximum altitude 10:56:56 40° 100° (E) 718 8.0 -6.9°
Drops below altitude 10° 11:00:18 10° 170° (S) 1,655 9.2 -6.1°
Sets 11:02:27 0° 178° (S) 2,542 10.0 -5.7°
